[[{"header":{"parameterUnit":"m.s-1","parameterCategory":1,"la1":30.2991,"la2":30.254,"lo1":-89.0895,"lo2":-89.0444,"dy":0.0017,"dx":0.0017,"nx":28,"ny":28,"refTime":"2023-10-06T21:00:00:Z","depth":0,"parameterNumber":2,"parameterNumberName":"U-component_of_WINDS"},"data":[0,0,0,0,0,0,0,0,0,0,0,0,0,0,0,0,0,0,0,0,0,0,0,0,0,0,0,0,0,0,0,0,0,0,0,0,0,0,0,0,0,0,0,0,0,0,0,0,0,0,0,0,0,0,0,0,0,0,-1.649,-1.649,0,-1.6458,-1.6458,-1.6457,-1.6392,-1.6391,-1.639,-1.6388,-1.6357,-1.6358,-1.6358,0,0,0,0,0,0,0,0,0,0,0,0,0,-1.6498,-1.6498,-1.649,-1.649,-1.649,-1.6458,-1.6458,-1.6457,-1.6392,-1.6391,-1.6389,-1.6388,-1.6357,-1.6358,-1.6358,0,0,0,0,0,0,0,0,0,0,0,0,0,-1.6483,-1.6498,-1.6491,-1.6453,-1.645,-1.6458,-1.6458,-1.6457,-1.6393,-1.6391,-1.6389,-1.6387,-1.6357,-1.6358,-1.6358,-1.6401,0,0,-1.636,-1.636,0,0,0,0,0,0,0,0,-1.6484,-1.6483,-1.6459,-1.6456,-1.6452,-1.6427,-1.6449,-1.6438,-1.6393,-1.6414,-1.6388,-1.6386,-1.6382,-1.6381,-1.6379,-1.6399,-1.6398,-1.636,-1.636,-1.6361,-1.6361,0,0,0,0,0,0,0,-1.6485,-1.6484,-1.6478,-1.6459,-1.6455,-1.6439,-1.6435,-1.6447,-1.641,-1.6412,-1.6408,-1.6405,-1.638,-1.6379,-1.6378,-1.6398,-1.636,-1.6361,-1.6361,-1.6361,-1.6452,-1.6454,0,0,0,0,0,0,-1.6491,-1.6485,-1.6479,-1.6477,-1.6463,-1.644,-1.6436,-1.6437,-1.6409,-1.6403,-1.6406,-1.6402,-1.6379,-1.6377,-1.6376,-1.6425,-1.6361,-1.6361,-1.6362,-1.645,-1.6453,-1.6455,0,0,0,0,0,0,-1.6492,-1.6491,-1.648,-1.648,-1.6477,-1.6442,-1.6445,-1.6438,-1.6436,-1.6405,-1.6398,-1.6412,-1.6377,-1.6376,-1.6395,-1.6423,-1.6361,-1.6362,-1.6448,-1.6451,-1.6454,-1.6523,0,0,0,0,0,0,-1.6492,-1.6492,-1.6507,-1.648,-1.6477,-1.6499,-1.6446,-1.6438,-1.6437,-1.6431,-1.6408,-1.6402,-1.6375,-1.6395,-1.6396,-1.6423,-1.6362,-1.6445,-1.6449,-1.6453,-1.6518,-1.6528,-1.6537,0,0,0,0,0,-1.6493,-1.6529,-1.6508,-1.6508,-1.6496,-1.6501,-1.6499,-1.6467,-1.6439,-1.6455,-1.6435,-1.6403,-1.642,-1.6397,-1.6398,-1.6426,-1.6443,-1.6448,-1.6452,-1.6514,-1.6526,-1.6537,0,0,0,0,0,0,-1.656,-1.6524,-1.6502,-1.653,-1.6519,-1.649,-1.6509,-1.6481,-1.6478,-1.6472,-1.6432,-1.6428,-1.6453,-1.6441,-1.6417,-1.6466,-1.6426,-1.6431,-1.6473,-1.6484,-1.6493,-1.6497,-1.6363,0,0,0,0,0,-1.6578,-1.6585,-1.6553,-1.6581,-1.6577,-1.6544,-1.6545,-1.6521,-1.6508,-1.6503,-1.6484,-1.6474,-1.6477,-1.648,-1.648,-1.6516,-1.651,-1.6535,-1.6544,-1.6552,-1.6557,-1.6576,-1.6587,-1.647,-1.647,-1.647,0,0,-1.6616,-1.6597,-1.6604,-1.6594,-1.6583,-1.6591,-1.654,-1.6551,-1.6557,-1.6505,-1.6523,-1.6509,-1.6494,-1.6522,-1.6533,-1.6513,-1.6588,-1.6558,-1.6565,-1.6566,-1.6582,-1.6593,-1.6603,-1.6473,-1.6473,-1.6472,0,0,-1.6689,-1.6675,-1.6697,-1.6687,-1.667,-1.6648,-1.6653,-1.6628,-1.6617,-1.6633,-1.6595,-1.6601,-1.6607,-1.6599,-1.6595,-1.6665,-1.6636,-1.6666,-1.6715,-1.6734,-1.6743,-1.6751,-1.6777,-1.6787,-1.6671,-1.6671,-1.6671,0,-1.6739,-1.6749,-1.6712,-1.6726,-1.6723,-1.6675,-1.6697,-1.6689,-1.6674,-1.6674,-1.665,-1.6657,-1.6644,-1.6669,-1.6686,-1.6685,-1.669,-1.6669,-1.6745,-1.6752,-1.6759,-1.6784,-1.6794,-1.6675,-1.6675,-1.6674,-1.6674,0,-1.6811,-1.6819,-1.6839,-1.6825,-1.6824,-1.6842,-1.6809,-1.6812,-1.6788,-1.6769,-1.6787,-1.6769,-1.6766,-1.677,-1.6747,-1.6793,-1.6781,-1.6752,-1.6711,-1.6775,-1.6797,-1.6806,-1.6681,-1.6679,-1.6678,-1.6677,0,0,-1.6927,-1.6892,-1.69,-1.6893,-1.6871,-1.6877,-1.6893,-1.6889,-1.6894,-1.6884,-1.6898,-1.6903,-1.6876,-1.6872,-1.6847,-1.6864,-1.6922,-1.6833,-1.6832,-1.6851,-1.6972,-1.6996,-1.7007,-1.6901,-1.6903,-1.6904,-1.6974,0,-1.6996,-1.7021,-1.6988,-1.7021,-1.7028,-1.6983,-1.6997,-1.6985,-1.6967,-1.6971,-1.6951,-1.6957,-1.692,-1.6917,-1.6931,-1.6912,-1.6946,-1.6906,-1.6915,-1.6915,-1.6921,-1.7018,-1.7043,-1.7109,-1.6982,-1.6984,-1.6985,0,-1.7081,-1.7075,-1.7109,-1.7084,-1.7086,-1.71,-1.7094,-1.7098,-1.7084,-1.7069,-1.7065,-1.7035,-1.705,-1.701,-1.703,-1.7004,-1.7005,-1.6996,-1.6998,-1.6999,-1.6955,-1.7023,-1.713,-1.7141,-1.6998,-1.6997,-1.6996,0,-1.7164,-1.7165,-1.7185,-1.718,-1.7152,-1.7163,-1.7152,-1.7136,-1.7136,-1.713,-1.713,-1.7127,-1.7126,-1.7124,-1.7095,-1.7068,-1.7119,-1.7076,-1.7109,-1.711,-1.7123,-1.7123,-1.7233,-1.7122,-1.7122,-1.7122,-1.7121,0,-1.7246,-1.7268,-1.7222,-1.7234,-1.7258,-1.722,-1.7245,-1.723,-1.7216,-1.7225,-1.7185,-1.7195,-1.7154,-1.716,-1.7137,-1.7158,-1.7157,-1.7147,-1.7141,-1.7151,-1.7153,-1.7153,-1.7148,-1.7124,-1.7124,-1.7123,-1.7123,0,-1.7343,-1.7313,-1.7332,-1.7304,-1.7297,-1.7316,-1.7292,-1.7303,-1.7282,-1.7295,-1.7295,-1.7263,-1.7267,-1.7237,-1.7236,-1.7221,-1.7254,-1.7239,-1.7258,-1.7254,-1.7289,-1.7287,-1.7404,-1.7418,-1.7297,-1.7298,-1.7299,0,-1.7398,-1.7414,-1.7387,-1.7391,-1.7381,-1.7387,-1.7386,-1.7349,-1.7351,-1.7336,-1.7349,-1.735,-1.7349,-1.7359,-1.7336,-1.7335,-1.7321,-1.7362,-1.732,-1.7331,-1.7323,-1.7323,-1.7325,-1.7371,-1.7373,-1.7374,-1.7375,0,-1.7499,-1.7483,-1.7484,-1.7479,-1.748,-1.7475,-1.7467,-1.7472,-1.7432,-1.7436,-1.7439,-1.7439,-1.7437,-1.7439,-1.7434,-1.7423,-1.7393,-1.7388,-1.7395,-1.7407,-1.7419,-1.7414,-1.7284,-1.7386,-1.7384,-1.7384,-1.7383,-1.7383,-1.7578,-1.759,-1.7574,-1.7576,-1.7566,-1.756,-1.7569,-1.7549,-1.7551,-1.7547,-1.7525,-1.7533,-1.7519,-1.7508,-1.75,-1.7507,-1.7487,-1.7498,-1.7501,-1.7505,-1.7512,-1.7416,-1.7505,-1.7505,-1.7505,-1.7504,-1.7504,0,-1.7678,-1.7665,-1.7667,-1.7657,-1.7659,-1.7629,-1.7619,-1.7623,-1.763,-1.7619,-1.7619,-1.7624,-1.7625,-1.7602,-1.7601,-1.7611,-1.7597,-1.7612,-1.7612,-1.761,-1.7528,-1.7523,-1.7623,-1.7623,-1.7623,-1.7623,-1.7623,-1.7623,-1.7731,-1.7751,-1.7733,-1.7748,-1.7734,-1.7741,-1.7738,-1.7733,-1.7724,-1.7731,-1.7732,-1.7716,-1.77,-1.7698,-1.7698,-1.7691,-1.7694,-1.7714,-1.7703,-1.7627,-1.7616,-1.7605,-1.7599,-1.7714,-1.7714,-1.7784,-1.7784,-1.7785]},{"header":{"parameterUnit":"m.s-1","parameterCategory":1,"la1":30.2991,"la2":30.254,"lo1":-89.0895,"lo2":-89.0444,"dy":0.0017,"dx":0.0017,"nx":28,"ny":28,"refTime":"2023-10-06T21:00:00:Z","depth":0,"parameterNumber":3,"parameterNumberName":"V-component_of_WINDS"},"data":[0,0,0,0,0,0,0,0,0,0,0,0,0,0,0,0,0,0,0,0,0,0,0,0,0,0,0,0,0,0,0,0,0,0,0,0,0,0,0,0,0,0,0,0,0,0,0,0,0,0,0,0,0,0,0,0,0,0,-2.7278,-2.7279,0,-2.733,-2.7331,-2.7331,-2.7329,-2.7329,-2.7328,-2.7327,-2.7379,-2.7381,-2.7383,0,0,0,0,0,0,0,0,0,0,0,0,0,-2.7175,-2.7177,-2.7278,-2.7279,-2.7279,-2.733,-2.7331,-2.7332,-2.733,-2.7329,-2.7328,-2.7327,-2.7378,-2.7381,-2.7383,0,0,0,0,0,0,0,0,0,0,0,0,0,-2.7223,-2.7177,-2.7278,-2.7284,-2.7286,-2.733,-2.7331,-2.7332,-2.733,-2.7329,-2.7328,-2.7327,-2.7377,-2.738,-2.7383,-2.7424,0,0,-2.7393,-2.7394,0,0,0,0,0,0,0,0,-2.722,-2.7226,-2.7283,-2.7284,-2.7285,-2.7322,-2.7313,-2.7363,-2.733,-2.7313,-2.7327,-2.7326,-2.7361,-2.7365,-2.7377,-2.7427,-2.7429,-2.7393,-2.7395,-2.7396,-2.7397,0,0,0,0,0,0,0,-2.7217,-2.7224,-2.7299,-2.7284,-2.7285,-2.7284,-2.729,-2.7323,-2.7342,-2.7314,-2.7314,-2.7321,-2.7361,-2.7374,-2.7378,-2.743,-2.7393,-2.7396,-2.7398,-2.7399,-2.7517,-2.7518,0,0,0,0,0,0,-2.7212,-2.7221,-2.7297,-2.73,-2.7249,-2.7287,-2.7293,-2.7311,-2.7342,-2.7345,-2.7321,-2.732,-2.737,-2.7375,-2.738,-2.7432,-2.7396,-2.7399,-2.7401,-2.7515,-2.7517,-2.7518,0,0,0,0,0,0,-2.721,-2.7219,-2.7295,-2.7261,-2.727,-2.729,-2.731,-2.7313,-2.7326,-2.7347,-2.7351,-2.7331,-2.7369,-2.7376,-2.7414,-2.7433,-2.74,-2.7403,-2.7514,-2.7516,-2.7518,-2.7534,0,0,0,0,0,0,-2.7207,-2.7218,-2.7234,-2.7261,-2.7272,-2.7328,-2.7312,-2.7315,-2.7332,-2.7331,-2.7358,-2.7361,-2.7369,-2.7409,-2.7417,-2.7437,-2.7406,-2.7512,-2.7515,-2.7517,-2.7532,-2.7536,-2.754,0,0,0,0,0,-2.7203,-2.7236,-2.7235,-2.7244,-2.7293,-2.7329,-2.7335,-2.7344,-2.7333,-2.735,-2.7363,-2.736,-2.743,-2.7413,-2.7422,-2.7443,-2.7511,-2.7514,-2.7517,-2.753,-2.7535,-2.754,0,0,0,0,0,0,-2.7209,-2.7239,-2.7239,-2.7281,-2.7303,-2.7329,-2.7349,-2.7349,-2.7374,-2.7372,-2.7381,-2.7387,-2.7426,-2.7438,-2.7419,-2.7485,-2.7469,-2.7474,-2.7476,-2.7481,-2.7485,-2.7482,-2.7408,0,0,0,0,0,-2.7216,-2.7243,-2.7268,-2.7303,-2.7314,-2.733,-2.7346,-2.7351,-2.7373,-2.7382,-2.7399,-2.742,-2.7447,-2.7464,-2.749,-2.7533,-2.754,-2.7552,-2.7556,-2.7559,-2.7564,-2.7589,-2.7595,-2.7528,-2.7528,-2.7528,0,0,-2.7229,-2.7249,-2.7265,-2.7304,-2.7322,-2.735,-2.7337,-2.7367,-2.7389,-2.7386,-2.7424,-2.7437,-2.7461,-2.7503,-2.7521,-2.7514,-2.7584,-2.7563,-2.7565,-2.7568,-2.7593,-2.7599,-2.7605,-2.753,-2.7529,-2.7529,0,0,-2.7268,-2.7285,-2.7317,-2.7335,-2.7362,-2.7373,-2.738,-2.7407,-2.7416,-2.7454,-2.7453,-2.7478,-2.7523,-2.7542,-2.7557,-2.7604,-2.7602,-2.7612,-2.7634,-2.7658,-2.7664,-2.7669,-2.7687,-2.7694,-2.7616,-2.7616,-2.7616,0,-2.7281,-2.7325,-2.7333,-2.7365,-2.7382,-2.7382,-2.7415,-2.7432,-2.7465,-2.7477,-2.7468,-2.7527,-2.7543,-2.759,-2.7601,-2.7613,-2.7623,-2.761,-2.7662,-2.7667,-2.7672,-2.769,-2.7697,-2.7617,-2.7617,-2.7617,-2.7617,0,-2.734,-2.737,-2.7393,-2.7427,-2.7447,-2.7478,-2.7492,-2.7511,-2.7514,-2.7526,-2.7565,-2.7584,-2.7615,-2.7626,-2.7629,-2.7673,-2.7668,-2.766,-2.7645,-2.7679,-2.7696,-2.7703,-2.7619,-2.7618,-2.7618,-2.7618,0,0,-2.7385,-2.7425,-2.7433,-2.7449,-2.7479,-2.7503,-2.7534,-2.7565,-2.7582,-2.7605,-2.7632,-2.7671,-2.7665,-2.7682,-2.7687,-2.7708,-2.7747,-2.7699,-2.7699,-2.7709,-2.7799,-2.7806,-2.7813,-2.7745,-2.7746,-2.7747,-2.7797,0,-2.7429,-2.7487,-2.7497,-2.7547,-2.7576,-2.7576,-2.7604,-2.7625,-2.7637,-2.7663,-2.7675,-2.7703,-2.7692,-2.7703,-2.7724,-2.7738,-2.7765,-2.7734,-2.7772,-2.7773,-2.7768,-2.7822,-2.7829,-2.7875,-2.7804,-2.7805,-2.7806,0,-2.7489,-2.7515,-2.7569,-2.7597,-2.7609,-2.7634,-2.7664,-2.7688,-2.7712,-2.7719,-2.7739,-2.7741,-2.7774,-2.7756,-2.7802,-2.7781,-2.7797,-2.7806,-2.7808,-2.7813,-2.7793,-2.7831,-2.789,-2.7898,-2.7816,-2.7815,-2.7814,0,-2.7519,-2.7567,-2.7607,-2.762,-2.7653,-2.767,-2.7685,-2.7708,-2.7726,-2.7752,-2.7764,-2.7792,-2.7809,-2.783,-2.7841,-2.7826,-2.7887,-2.7869,-2.7894,-2.7894,-2.7909,-2.7908,-2.7973,-2.7915,-2.7915,-2.7915,-2.7915,0,-2.7568,-2.7602,-2.7621,-2.7645,-2.7683,-2.7693,-2.773,-2.7743,-2.7764,-2.7791,-2.7792,-2.7817,-2.7828,-2.7855,-2.7862,-2.7901,-2.7907,-2.7914,-2.7916,-2.7915,-2.7915,-2.7927,-2.7925,-2.7917,-2.7917,-2.7916,-2.7916,0,-2.7609,-2.7623,-2.7666,-2.7694,-2.7702,-2.7729,-2.7752,-2.7776,-2.7787,-2.7821,-2.7829,-2.7847,-2.7879,-2.7891,-2.7929,-2.7934,-2.7979,-2.7977,-2.7971,-2.7972,-2.7998,-2.7996,-2.8075,-2.8087,-2.8019,-2.802,-2.802,0,-2.7641,-2.7667,-2.7698,-2.7717,-2.7732,-2.7762,-2.7781,-2.7791,-2.7811,-2.7842,-2.7862,-2.7893,-2.792,-2.797,-2.7986,-2.8016,-2.8016,-2.8042,-2.802,-2.8019,-2.8019,-2.8018,-2.8022,-2.8046,-2.8047,-2.8047,-2.8048,0,-2.7696,-2.7702,-2.7731,-2.7762,-2.7785,-2.781,-2.7834,-2.7849,-2.7863,-2.7885,-2.7918,-2.7939,-2.7978,-2.801,-2.8041,-2.8055,-2.8054,-2.8054,-2.8062,-2.8062,-2.8059,-2.8063,-2.7984,-2.8053,-2.8052,-2.8052,-2.8052,-2.8051,-2.7735,-2.7759,-2.7785,-2.7817,-2.7837,-2.7859,-2.7883,-2.7898,-2.7926,-2.7961,-2.7964,-2.8,-2.8024,-2.8065,-2.8081,-2.8109,-2.8102,-2.8113,-2.8116,-2.8119,-2.8122,-2.8053,-2.8114,-2.8114,-2.8114,-2.8114,-2.8114,0,-2.7793,-2.781,-2.7839,-2.7873,-2.7898,-2.7896,-2.7922,-2.7944,-2.7976,-2.7998,-2.8025,-2.8063,-2.8094,-2.8113,-2.8144,-2.8163,-2.8164,-2.8171,-2.8171,-2.8175,-2.8125,-2.8117,-2.8171,-2.8171,-2.8171,-2.8171,-2.8171,-2.8171,-2.7826,-2.7867,-2.7876,-2.7927,-2.7943,-2.798,-2.7995,-2.8016,-2.8035,-2.8078,-2.8105,-2.8117,-2.8138,-2.8171,-2.82,-2.8205,-2.8217,-2.8226,-2.823,-2.8184,-2.8178,-2.8172,-2.8164,-2.8228,-2.8228,-2.8277,-2.8278,-2.8278]}]]